TimePDT,TemperatureF,Dew PointF,Humidity,Sea Level PressureIn,VisibilityMPH,Wind Direction,Wind SpeedMPH,Gust SpeedMPH,PrecipitationIn,Events,Conditions,WindDirDegrees,DateUTC
12:56 AM,79.0,61.0,54,29.84,10.0,Calm,Calm,-,N/A,,Clear,0,2013-08-28 07:56:00
1:56 AM,77.0,61.0,58,29.84,10.0,SE,4.6,-,N/A,,Clear,140,2013-08-28 08:56:00
2:56 AM,75.9,61.0,60,29.84,10.0,South,3.5,-,N/A,,Clear,180,2013-08-28 09:56:00
3:56 AM,74.8,61.9,64,29.84,10.0,South,4.6,-,N/A,,Clear,170,2013-08-28 10:56:00
4:56 AM,73.9,61.0,64,29.85,10.0,SSE,6.9,-,N/A,,Clear,150,2013-08-28 11:56:00
5:56 AM,72.9,61.0,66,29.87,10.0,SSE,5.8,-,N/A,,Clear,150,2013-08-28 12:56:00
6:56 AM,74.8,61.0,62,29.89,10.0,SSE,5.8,-,N/A,,Clear,150,2013-08-28 13:56:00
7:56 AM,79.0,59.9,52,29.90,10.0,South,3.5,-,N/A,,Clear,190,2013-08-28 14:56:00
8:56 AM,83.8,57.9,41,29.91,10.0,Calm,Calm,-,N/A,,Clear,0,2013-08-28 15:56:00
9:56 AM,88.0,56.8,35,29.91,10.0,Variable,4.6,-,N/A,,Clear,0,2013-08-28 16:56:00
10:56 AM,88.9,56.8,34,29.91,10.0,Calm,Calm,-,N/A,,Clear,0,2013-08-28 17:56:00
11:56 AM,92.8,57.9,31,29.89,10.0,Calm,Calm,-,N/A,,Clear,0,2013-08-28 18:56:00
12:56 PM,95.9,57.9,28,29.87,10.0,East,4.6,-,N/A,,Partly Cloudy,100,2013-08-28 19:56:00
1:56 PM,95.9,57.9,28,29.85,10.0,Calm,Calm,-,N/A,,Clear,0,2013-08-28 20:56:00
2:56 PM,93.9,55.9,28,29.84,10.0,SSW,6.9,-,0.00,,Clear,200,2013-08-28 21:56:00
3:56 PM,91.9,56.8,31,29.85,10.0,West,19.6,25.3,N/A,,Partly Cloudy,260,2013-08-28 22:56:00
4:56 PM,90.0,59.0,35,29.84,10.0,Calm,Calm,-,N/A,,Clear,0,2013-08-28 23:56:00
5:56 PM,92.8,59.0,32,29.83,10.0,Calm,Calm,-,N/A,,Partly Cloudy,0,2013-08-29 00:56:00
6:56 PM,93.9,57.9,30,29.83,10.0,South,5.8,-,N/A,,Clear,190,2013-08-29 01:56:00
7:27 PM,87.8,57.2,35,29.91,4.0,NE,12.7,52.9,0.00,Rain,Heavy Rain,50,2013-08-29 02:27:00
7:56 PM,86.9,63.0,45,29.84,10.0,Calm,Calm,-,0.00,,Clear,0,2013-08-29 02:56:00
8:56 PM,82.9,65.8,56,29.87,10.0,South,4.6,-,N/A,,Partly Cloudy,170,2013-08-29 03:56:00
9:56 PM,83.8,63.9,51,29.88,10.0,SSW,6.9,-,N/A,,Clear,200,2013-08-29 04:56:00
10:56 PM,82.9,63.0,51,29.89,10.0,South,5.8,-,N/A,,Clear,170,2013-08-29 05:56:00
11:56 PM,81.9,63.0,53,29.89,10.0,SSW,5.8,-,N/A,,Clear,200,2013-08-29 06:56:00